period_start,C,m1,H,J0,J1,J2,J3,J4,J5,JA,JB,JC,JD,JJ,JK,JN,#
2015-05-17 00:03:05,0.03,0.39,0.00,23.35,27.00,29.66,4.68,24.61,1018.09,2035.79,3318.02,3207.01,3477.01,349.70,347.42,6.30,0000 0000 0000 0000 000000
2015-05-17 00:08:06,0.00,0.39,0.00,23.26,27.00,29.62,4.73,24.54,1018.09,2035.86,3317.99,3207.00,3477.00,349.82,347.42,6.33,0000 0000 0000 0000 000000
2015-05-17 00:13:08,-0.00,0.39,0.00,23.22,27.00,29.63,4.72,24.57,1018.08,2035.74,3317.67,3206.99,3476.98,349.97,347.88,6.36,0000 0000 0000 0000 000000
2015-05-17 00:18:09,0.02,0.39,0.00,23.26,27.00,29.59,4.78,24.63,1018.08,2035.71,3317.07,3206.87,3476.72,349.79,347.55,6.39,0000 0000 0000 0000 000000
2015-05-17 00:23:10,0.06,0.40,0.00,23.06,27.00,29.72,4.76,24.55,1018.08,2035.82,3316.99,3206.41,3476.14,350.17,348.04,6.42,0000 0000 0000 0000 000000
2015-05-17 00:28:11,0.02,0.40,0.00,22.95,27.00,29.74,4.78,24.50,1018.08,2035.82,3316.71,3206.08,3476.01,349.38,347.41,6.45,0000 0000 0000 0000 000000
2015-05-17 00:33:12,0.02,0.40,0.00,22.99,26.99,29.77,4.80,24.43,1018.08,2035.78,3316.09,3206.00,3476.00,350.14,348.37,6.48,0000 0000 0000 0000 000000
2015-05-17 00:38:13,0.01,0.40,0.00,23.20,26.98,29.79,4.83,24.48,1018.08,2035.85,3316.00,3205.99,3475.98,350.44,348.27,6.51,0000 0000 0000 0000 000000
2015-05-17 00:43:14,0.01,0.40,0.00,23.41,26.98,29.75,4.76,24.50,1018.08,2035.97,3315.94,3205.99,3475.95,350.28,347.76,6.53,0000 0000 0000 0000 000000
2015-05-17 00:48:16,0.04,0.40,0.00,23.36,26.99,29.70,4.75,24.53,1018.08,2035.95,3315.29,3205.89,3475.37,349.83,347.59,6.56,0000 0000 0000 0000 000000
2015-05-17 00:53:17,0.03,0.40,0.00,23.32,26.99,29.74,4.78,24.47,1018.08,2035.96,3315.01,3205.42,3475.03,350.14,348.00,6.59,0000 0000 0000 0000 000000
2015-05-17 00:58:18,0.00,0.40,0.00,23.43,27.00,29.75,4.71,24.66,1018.08,2035.85,3314.62,3205.04,3474.99,349.42,347.21,6.62,0000 0000 0000 0000 000000
2015-05-17 01:03:19,0.03,0.40,0.00,23.35,27.00,29.75,4.80,24.60,1018.07,2035.89,3314.10,3205.00,3474.91,350.08,347.77,6.65,0000 0000 0000 0000 000000
2015-05-17 01:08:20,0.02,0.40,0.00,23.28,27.00,29.75,4.72,24.56,1018.05,2035.91,3314.00,3204.98,3474.31,350.05,347.77,6.68,0000 0000 0000 0000 000000
2015-05-17 01:13:22,0.04,0.40,0.00,23.37,27.00,29.75,4.79,24.50,1017.97,2035.91,3313.54,3204.60,3474.02,350.33,348.04,6.71,0000 0000 0000 0000 000000
2015-05-17 01:18:23,0.03,0.40,0.00,23.29,27.00,29.73,4.82,24.53,1017.78,2035.95,3313.02,3204.09,3473.99,350.37,348.01,6.74,0000 0000 0000 0000 000000
2015-05-17 01:23:24,0.01,0.41,0.00,23.11,27.00,29.81,4.72,24.51,1017.77,2035.89,3312.73,3204.01,3473.61,349.91,347.65,6.77,0000 0000 0000 0000 000000
2015-05-17 01:28:25,0.03,0.41,0.00,23.11,27.00,29.87,4.75,24.55,1017.64,2035.91,3312.04,3203.98,3473.05,349.68,347.54,6.80,0000 0000 0000 0000 000000
2015-05-17 01:33:27,0.04,0.41,0.00,23.08,27.00,29.85,4.73,24.47,1017.61,2035.91,3311.78,3203.49,3472.98,349.98,348.02,6.83,0000 0000 0000 0000 000000
2015-05-17 01:38:28,0.03,0.41,0.00,23.27,27.00,29.84,4.72,24.55,1017.62,2035.90,3311.11,3203.05,3472.71,349.49,347.31,6.86,0000 0000 0000 0000 000000
2015-05-17 01:43:30,0.01,0.41,0.00,23.54,27.00,29.84,4.81,24.59,1017.62,2035.89,3310.99,3203.00,3472.06,350.04,347.61,6.89,0000 0000 0000 0000 000000
2015-05-17 01:48:31,0.03,0.41,0.00,23.49,27.02,29.80,4.78,24.55,1017.62,2035.94,3310.46,3202.98,3472.00,349.61,347.07,6.92,0000 0000 0000 0000 000000
2015-05-17 01:53:32,0.03,0.41,0.00,23.46,27.02,29.79,4.73,24.50,1017.60,2035.91,3310.00,3202.64,3471.89,349.59,347.29,6.95,0000 0000 0000 0000 000000
2015-05-17 01:58:33,0.05,0.41,0.00,23.39,27.02,29.83,4.76,24.69,1017.60,2035.90,3309.30,3202.05,3471.19,349.64,347.18,6.97,0000 0000 0000 0000 000000
2015-05-17 02:03:35,0.01,0.41,0.00,23.22,27.02,29.89,4.75,24.52,1017.60,2035.93,3309.00,3202.00,3471.00,350.31,347.83,7.00,0000 0000 0000 0000 000000
2015-05-17 02:08:36,0.02,0.41,0.00,23.22,27.03,29.90,4.75,24.52,1017.60,2035.94,3308.64,3201.96,3470.97,349.61,347.37,7.03,0000 0000 0000 0000 000000
2015-05-17 02:13:38,0.06,0.41,0.00,23.21,27.02,29.90,4.82,24.46,1017.60,2035.95,3308.03,3201.49,3470.38,350.07,347.80,7.06,0000 0000 0000 0000 000000
2015-05-17 02:18:39,0.01,0.42,0.00,23.37,27.03,29.86,4.77,24.45,1017.60,2035.94,3307.91,3201.03,3470.01,349.72,347.57,7.09,0000 0000 0000 0000 000000
2015-05-17 02:23:40,0.02,0.42,0.00,23.60,27.04,29.85,4.79,24.43,1017.60,2035.96,3307.20,3201.00,3469.98,350.27,347.63,7.12,0000 0000 0000 0000 000000
2015-05-17 02:28:42,0.03,0.42,0.00,23.62,27.05,29.87,4.78,24.50,1017.59,2035.93,3306.88,3200.86,3469.38,349.79,347.11,7.15,0000 0000 0000 0000 000000
2015-05-17 02:33:43,0.04,0.42,0.00,23.40,27.05,29.91,4.72,24.47,1017.59,2035.88,3306.08,3200.13,3469.00,349.77,347.42,7.18,0000 0000 0000 0000 000000
2015-05-17 02:38:44,0.04,0.42,0.00,23.33,27.05,29.90,4.76,24.41,1017.59,2035.77,3305.54,3199.99,3468.68,350.26,347.84,7.21,0000 0000 0000 0000 000000
2015-05-17 02:43:46,0.04,0.42,0.00,23.31,27.06,29.92,4.81,24.48,1017.59,2035.63,3304.99,3199.49,3468.04,350.20,347.77,7.24,0000 0000 0000 0000 000000
2015-05-17 02:48:47,0.04,0.42,0.00,23.28,27.06,29.94,4.76,24.48,1017.59,2035.83,3304.52,3199.06,3467.99,350.32,348.05,7.27,0000 0000 0000 0000 000000
2015-05-17 02:53:48,0.02,0.42,0.00,23.55,27.07,29.91,4.83,24.50,1017.59,2035.78,3304.02,3199.00,3467.52,350.34,347.83,7.30,0000 0000 0000 0000 000000
2015-05-17 02:58:49,-0.02,0.42,0.00,23.68,27.07,29.91,4.75,24.57,1017.59,2035.57,3303.72,3198.98,3467.03,349.75,347.00,7.33,0000 0000 0000 0000 000000
2015-05-17 03:03:50,0.04,0.42,0.00,23.57,27.07,29.87,4.73,24.45,1017.59,2035.59,3303.08,3198.77,3466.96,349.74,347.17,7.36,0000 0000 0000 0000 000000
2015-05-17 03:08:51,0.03,0.42,0.00,23.45,27.09,29.94,4.75,24.50,1017.60,2035.48,3302.85,3198.09,3466.34,350.05,347.54,7.38,0000 0000 0000 0000 000000
2015-05-17 03:13:52,0.03,0.43,0.00,23.41,27.10,29.93,4.78,24.52,1017.59,2035.58,3302.09,3198.00,3466.02,350.09,347.62,7.41,0000 0000 0000 0000 000000
2015-05-17 03:18:54,0.00,0.43,0.00,23.39,27.10,29.93,4.71,24.40,1017.59,2035.51,3301.97,3197.98,3465.98,349.81,347.34,7.44,0000 0000 0000 0000 000000
2015-05-17 03:23:55,0.05,0.43,0.00,23.38,27.10,29.96,4.74,24.41,1017.59,2035.43,3301.23,3197.49,3465.44,349.57,347.24,7.47,0000 0000 0000 0000 000000
2015-05-17 03:28:57,0.03,0.43,0.00,23.66,27.10,29.93,4.84,24.45,1017.59,2035.33,3300.68,3197.01,3464.97,350.31,347.60,7.50,0000 0000 0000 0000 000000
2015-05-17 03:33:58,0.05,0.43,0.00,23.71,27.11,29.95,4.79,24.48,1017.59,2035.28,3300.01,3196.75,3464.26,349.98,347.01,7.53,0000 0000 0000 0000 000000
2015-05-17 03:38:59,0.02,0.43,0.00,23.53,27.12,29.96,4.71,24.50,1017.59,2035.18,3299.31,3196.08,3464.00,349.74,347.36,7.56,0000 0000 0000 0000 000000
2015-05-17 03:44:00,0.04,0.43,0.00,23.46,27.12,29.95,4.76,24.49,1017.59,2035.11,3298.65,3195.87,3463.40,349.62,347.04,7.59,0000 0000 0000 0000 000000
2015-05-17 03:49:02,0.05,0.43,0.00,23.46,27.12,29.96,4.74,24.40,1017.59,2035.08,3297.90,3195.11,3462.95,350.27,347.71,7.62,0000 0000 0000 0000 000000
2015-05-17 03:54:03,0.04,0.43,0.00,23.42,27.12,29.98,4.72,24.38,1017.59,2035.06,3297.09,3194.93,3462.18,349.37,346.75,7.65,0000 0000 0000 0000 000000
2015-05-17 03:59:04,0.08,0.44,0.00,23.48,27.12,29.99,4.82,24.57,1017.59,2035.06,3296.27,3194.18,3461.71,350.08,347.49,7.68,0000 0000 0000 0000 000000
2015-05-17 04:04:06,0.04,0.44,0.00,23.75,27.13,29.98,4.73,24.38,1017.59,2035.08,3295.54,3193.89,3461.03,350.00,347.12,7.71,0000 0000 0000 0000 000000
2015-05-17 04:09:07,0.07,0.44,0.00,23.71,27.15,29.98,4.75,24.41,1017.59,2035.08,3294.69,3193.12,3460.48,349.77,347.00,7.74,0000 0000 0000 0000 000000
2015-05-17 04:14:08,0.03,0.44,0.00,23.51,27.15,30.00,4.77,24.43,1017.59,2035.04,3293.84,3192.89,3459.97,349.67,347.11,7.77,0000 0000 0000 0000 000000
2015-05-17 04:19:09,0.07,0.44,0.00,23.51,27.15,29.95,4.75,24.41,1017.59,2035.04,3293.03,3192.09,3459.17,349.89,347.24,7.79,0000 0000 0000 0000 000000
2015-05-17 04:24:10,0.03,0.44,0.00,23.51,27.15,29.96,4.76,24.39,1017.57,2035.02,3292.30,3191.97,3458.91,349.94,347.06,7.82,0000 0000 0000 0000 000000
2015-05-17 04:29:12,0.08,0.45,0.00,23.45,27.15,30.01,4.73,24.40,1017.59,2035.01,3291.51,3191.22,3458.15,349.70,347.08,7.85,0000 0000 0000 0000 000000
2015-05-17 04:34:13,0.01,0.45,0.00,23.42,27.15,30.01,4.70,24.42,1017.57,2035.01,3290.91,3190.99,3457.91,349.88,347.40,7.88,0000 0000 0000 0000 000000
2015-05-17 04:39:14,0.06,0.45,0.00,23.42,27.15,30.02,4.78,24.32,1017.41,2035.02,3290.12,3190.64,3457.15,350.18,347.59,7.91,0000 0000 0000 0000 000000
2015-05-17 04:44:15,0.03,0.45,0.00,23.45,27.15,30.01,4.76,24.33,1017.37,2035.01,3289.76,3190.02,3456.99,349.97,347.27,7.94,0000 0000 0000 0000 000000
2015-05-17 04:49:17,0.03,0.45,0.00,23.70,27.16,29.99,4.74,24.42,1017.29,2035.01,3289.07,3189.99,3456.55,349.48,346.51,7.97,0000 0000 0000 0000 000000
2015-05-17 04:54:18,0.06,0.45,0.00,23.76,27.17,30.00,4.83,24.51,1017.15,2035.00,3288.60,3189.38,3456.01,349.80,346.82,8.00,0000 0000 0000 0000 000000
2015-05-17 04:59:20,0.03,0.45,0.00,23.66,27.17,30.02,4.76,24.59,1017.12,2035.00,3287.99,3189.01,3455.60,350.33,347.15,8.03,0000 0000 0000 0000 000000
2015-05-17 05:04:21,0.04,0.46,0.00,23.57,27.19,30.01,4.76,24.49,1017.15,2035.01,3287.31,3188.89,3455.09,349.94,347.14,8.06,0000 0000 0000 0000 000000
2015-05-17 05:09:22,0.05,0.46,0.00,23.59,27.20,29.95,4.65,24.40,1017.14,2035.00,3286.71,3188.16,3454.89,349.49,346.67,8.09,0000 0000 0000 0000 000000
2015-05-17 05:14:23,0.03,0.46,0.00,23.58,27.20,29.96,4.68,24.35,1017.12,2035.00,3286.00,3187.98,3454.09,349.56,346.76,8.12,0000 0000 0000 0000 000000
2015-05-17 05:19:25,0.07,0.46,0.00,23.53,27.20,30.01,4.73,24.29,1017.12,2035.00,3285.18,3187.32,3453.77,349.68,346.91,8.15,0000 0000 0000 0000 000000
2015-05-17 05:24:26,0.04,0.46,0.00,23.51,27.20,30.03,4.77,24.42,1017.11,2035.00,3284.50,3187.00,3453.05,350.12,347.38,8.18,0000 0000 0000 0000 000000
2015-05-17 05:29:27,0.01,0.46,0.00,23.50,27.20,30.04,4.83,24.43,1017.11,2035.00,3283.98,3186.82,3452.95,350.29,347.54,8.20,0000 0000 0000 0000 000000
2015-05-17 05:34:28,0.08,0.46,0.00,23.48,27.20,30.03,4.75,24.43,1017.11,2035.00,3283.22,3186.09,3452.18,350.24,347.40,8.23,0000 0000 0000 0000 000000
2015-05-17 05:39:29,0.00,0.47,0.00,23.48,27.20,30.04,4.78,24.38,1017.11,2035.00,3282.89,3186.00,3452.00,350.29,347.41,8.26,0000 0000 0000 0000 000000
2015-05-17 05:44:30,0.06,0.47,0.00,23.49,27.20,30.04,4.75,24.38,1017.11,2035.00,3282.14,3185.67,3451.55,350.14,347.50,8.29,0000 0000 0000 0000 000000
2015-05-17 05:49:32,0.05,0.47,0.00,23.47,27.20,30.05,4.75,24.38,1017.11,2035.00,3281.40,3185.04,3451.00,349.68,346.98,8.32,0000 0000 0000 0000 000000
2015-05-17 05:54:33,0.02,0.47,0.00,23.47,27.20,30.04,4.68,24.32,1017.11,2035.00,3280.96,3184.94,3450.51,349.52,346.84,8.35,0000 0000 0000 0000 000000
2015-05-17 05:59:34,0.06,0.47,0.00,23.47,27.20,30.05,4.74,24.45,1017.11,2035.00,3280.16,3184.34,3450.02,349.74,347.19,8.38,0000 0000 0000 0000 000000
2015-05-17 06:04:36,0.01,0.47,0.00,23.47,27.20,30.04,4.78,24.39,1017.11,2035.00,3279.97,3184.08,3449.99,349.81,347.06,8.41,0000 0000 0000 0000 000000
2015-05-17 06:09:37,0.03,0.47,0.00,23.47,27.20,30.04,4.75,24.35,1017.10,2035.00,3279.40,3184.00,3449.64,349.84,347.15,8.44,0000 0000 0000 0000 000000
2015-05-17 06:14:38,0.01,0.47,0.00,23.50,27.20,30.03,4.75,24.35,1017.09,2035.00,3279.00,3183.96,3449.08,350.15,347.35,8.47,0000 0000 0000 0000 000000
2015-05-17 06:19:39,0.05,0.47,0.00,23.50,27.20,30.02,4.78,24.34,1017.06,2035.00,3278.41,3183.42,3448.99,349.63,347.17,8.50,0000 0000 0000 0000 000000
2015-05-17 06:24:40,0.03,0.48,0.00,23.49,27.20,30.02,4.68,24.34,1017.06,2035.00,3278.00,3183.03,3448.52,349.90,346.96,8.53,0000 0000 0000 0000 000000
2015-05-17 06:29:42,0.01,0.48,0.00,23.49,27.20,30.03,4.73,24.35,1017.04,2035.00,3277.76,3183.00,3448.05,349.85,347.10,8.56,0000 0000 0000 0000 000000
2015-05-17 06:34:43,0.03,0.48,0.00,23.51,27.20,30.00,4.78,24.35,1017.05,2035.00,3277.04,3182.82,3447.99,349.90,347.02,8.59,0000 0000 0000 0000 000000
2015-05-17 06:39:45,0.04,0.48,0.00,23.50,27.20,30.01,4.76,24.41,1017.08,2035.00,3276.77,3182.31,3447.75,349.93,346.91,8.61,0000 0000 0000 0000 000000
2015-05-17 06:44:46,0.03,0.48,0.00,23.53,27.20,30.01,4.79,24.27,1017.09,2035.00,3276.07,3182.01,3447.09,350.04,347.31,8.64,0000 0000 0000 0000 000000
2015-05-17 06:49:47,0.00,0.48,0.00,23.54,27.20,30.00,4.79,24.32,1017.06,2035.01,3275.98,3182.00,3447.00,350.18,347.47,8.67,0000 0000 0000 0000 000000
2015-05-17 06:54:49,0.05,0.48,0.00,23.54,27.20,30.00,4.72,24.38,1016.84,2035.01,3275.24,3181.84,3446.74,349.77,346.93,8.70,0000 0000 0000 0000 000000
2015-05-17 06:59:50,0.04,0.48,0.00,23.54,27.20,29.99,4.77,24.53,1016.84,2035.00,3274.92,3181.14,3446.05,349.97,346.95,8.73,0000 0000 0000 0000 000000
2015-05-17 07:04:51,0.02,0.48,0.00,23.57,27.20,29.99,4.81,24.43,1016.85,2035.01,3274.25,3181.01,3445.99,350.01,347.11,8.76,0000 0000 0000 0000 000000
2015-05-17 07:09:52,0.00,0.48,0.00,23.62,27.20,29.95,4.73,24.40,1016.98,2035.02,3274.00,3181.00,3445.93,349.92,346.92,8.79,0000 0000 0000 0000 000000
2015-05-17 07:14:53,0.05,0.48,0.00,23.64,27.20,29.95,4.70,24.32,1016.77,2035.02,3273.56,3180.92,3445.32,349.95,346.98,8.82,0000 0000 0000 0000 000000
2015-05-17 07:19:55,0.03,0.49,0.00,23.63,27.20,29.93,4.69,24.33,1016.66,2035.01,3273.02,3180.26,3444.99,349.68,346.61,8.85,0000 0000 0000 0000 000000
2015-05-17 07:24:56,0.02,0.49,0.00,23.63,27.20,29.92,4.75,24.42,1016.82,2035.00,3272.68,3180.00,3444.84,349.44,346.46,8.88,0000 0000 0000 0000 000000
2015-05-17 07:29:58,0.03,0.49,0.00,23.65,27.21,29.91,4.68,24.30,1016.98,2035.00,3272.03,3179.98,3444.12,349.54,346.51,8.91,0000 0000 0000 0000 000000
2015-05-17 07:34:59,0.02,0.49,0.00,23.65,27.21,29.91,4.74,24.35,1016.81,2035.00,3271.82,3179.79,3443.99,350.05,347.23,8.94,0000 0000 0000 0000 000000
2015-05-17 07:40:00,0.05,0.49,0.00,23.63,27.22,29.88,4.71,24.39,1016.78,2035.01,3271.07,3179.12,3443.76,349.95,346.94,8.97,0000 0000 0000 0000 000000
2015-05-17 07:45:01,0.03,0.49,0.00,23.66,27.22,29.87,4.75,24.37,1016.71,2035.00,3270.62,3178.99,3443.06,350.22,347.09,9.00,0000 0000 0000 0000 000000
2015-05-17 07:50:03,0.01,0.49,0.00,23.66,27.22,29.87,4.74,24.35,1016.82,2035.01,3270.03,3178.94,3442.99,350.32,347.31,9.02,0000 0000 0000 0000 000000
2015-05-17 07:55:05,0.06,0.49,0.00,23.65,27.22,29.89,4.77,24.33,1016.85,2035.01,3269.78,3178.38,3442.57,350.35,347.25,9.05,0000 0000 0000 0000 000000
2015-05-17 08:00:06,0.03,0.49,0.00,23.66,27.22,29.90,4.71,24.37,1016.67,2035.00,3269.03,3178.01,3442.02,349.76,346.73,9.08,0000 0000 0000 0000 000000
2015-05-17 08:05:07,0.01,0.49,0.00,23.67,27.22,29.90,4.73,24.23,1016.64,2035.00,3268.85,3178.00,3441.96,349.87,347.08,9.11,0000 0000 0000 0000 000000
2015-05-17 08:10:08,0.06,0.50,0.00,23.65,27.22,29.94,4.77,24.32,1016.64,2035.01,3268.09,3177.73,3441.44,349.96,346.83,9.14,0000 0000 0000 0000 000000
2015-05-17 08:15:10,0.04,0.50,0.00,23.65,27.22,29.92,4.70,24.36,1016.63,2035.01,3267.79,3177.08,3441.01,349.97,347.04,9.17,0000 0000 0000 0000 000000
2015-05-17 08:20:11,0.02,0.50,0.00,23.65,27.22,29.90,4.77,24.30,1016.64,2035.00,3267.05,3177.00,3440.97,349.92,346.88,9.20,0000 0000 0000 0000 000000
2015-05-17 08:25:12,0.02,0.50,0.00,23.67,27.22,29.92,4.80,24.27,1016.64,2035.01,3266.90,3176.97,3440.37,349.82,346.63,9.23,0000 0000 0000 0000 000000
2015-05-17 08:30:14,0.05,0.50,0.00,23.67,27.22,29.87,4.71,24.28,1016.62,2035.00,3266.17,3176.62,3440.01,349.40,346.27,9.26,0000 0000 0000 0000 000000
2015-05-17 08:35:15,0.02,0.50,0.00,23.69,27.22,29.86,4.67,24.24,1016.62,2035.01,3265.90,3176.08,3439.97,349.39,346.38,9.29,0000 0000 0000 0000 000000
2015-05-17 08:40:16,0.04,0.50,0.00,23.71,27.22,29.84,4.72,24.14,1016.62,2035.01,3265.12,3175.99,3439.26,349.55,346.43,9.32,0000 0000 0000 0000 000000
2015-05-17 08:45:17,0.00,0.50,0.00,23.70,27.22,29.87,4.70,24.20,1016.63,2035.01,3264.96,3175.96,3439.01,349.45,346.32,9.35,0000 0000 0000 0000 000000
2015-05-17 08:50:19,0.07,0.50,0.00,23.70,27.22,29.89,4.73,24.28,1016.62,2035.01,3264.22,3175.38,3438.84,349.68,346.63,9.38,0000 0000 0000 0000 000000
2015-05-17 08:55:20,0.02,0.51,0.00,23.71,27.22,29.88,4.66,24.32,1016.62,2035.01,3263.93,3175.01,3438.08,349.36,346.34,9.41,0000 0000 0000 0000 000000
2015-05-17 09:00:22,0.03,0.51,0.00,23.72,27.22,29.89,4.79,24.30,1016.62,2035.01,3263.12,3174.98,3437.99,350.03,346.89,9.43,0000 0000 0000 0000 000000
2015-05-17 09:05:23,0.04,0.51,0.00,23.74,27.23,29.86,4.72,24.28,1016.62,2035.00,3262.97,3174.60,3437.61,349.77,346.50,9.46,0000 0000 0000 0000 000000
2015-05-17 09:10:24,0.04,0.51,0.00,23.73,27.24,29.84,4.80,24.24,1016.62,2035.01,3262.25,3174.04,3437.03,349.88,346.99,9.49,0000 0000 0000 0000 000000
2015-05-17 09:15:26,0.01,0.51,0.00,23.75,27.25,29.88,4.78,24.12,1016.62,2035.00,3261.90,3173.97,3436.86,349.91,346.73,9.52,0000 0000 0000 0000 000000
2015-05-17 09:20:27,0.06,0.51,0.00,23.75,27.25,29.85,4.72,24.23,1016.62,2035.00,3261.13,3173.63,3436.12,350.15,347.01,9.55,0000 0000 0000 0000 000000
2015-05-17 09:25:28,0.02,0.51,0.00,23.74,27.25,29.86,4.78,24.19,1016.62,2035.00,3260.98,3173.15,3436.00,349.73,346.47,9.58,0000 0000 0000 0000 000000
2015-05-17 09:30:29,0.03,0.51,0.00,23.75,27.25,29.85,4.76,24.20,1016.62,2035.00,3260.38,3173.00,3435.87,349.72,346.42,9.61,0000 0000 0000 0000 000000
2015-05-17 09:35:31,0.02,0.51,0.00,23.77,27.25,29.85,4.64,24.14,1016.62,2035.00,3260.00,3172.98,3435.13,350.32,347.14,9.64,0000 0000 0000 0000 000000
2015-05-17 09:40:32,0.05,0.52,0.00,23.77,27.25,29.84,4.76,24.13,1016.62,2035.00,3259.39,3172.48,3435.00,350.32,347.01,9.67,0000 0000 0000 0000 000000
2015-05-17 09:45:33,0.02,0.52,0.00,23.75,27.25,29.85,4.70,24.10,1016.62,2035.00,3259.02,3172.09,3434.94,349.79,346.79,9.70,0000 0000 0000 0000 000000
2015-05-17 09:50:34,0.03,0.52,0.00,23.77,27.25,29.84,4.70,24.23,1016.61,2035.01,3258.72,3172.01,3434.30,349.85,346.80,9.73,0000 0000 0000 0000 000000
2015-05-17 09:55:35,0.01,0.52,0.00,23.76,27.25,29.86,4.74,24.33,1016.58,2035.00,3258.03,3171.98,3434.00,350.37,347.19,9.76,0000 0000 0000 0000 000000
2015-05-17 10:00:37,0.04,0.52,0.00,23.75,27.25,29.85,4.76,24.31,1016.54,2035.00,3257.81,3171.36,3433.87,350.16,346.95,9.79,0000 0000 0000 0000 000000
2015-05-17 10:05:38,0.04,0.52,0.00,23.74,27.25,29.87,4.73,24.25,1016.51,2035.00,3257.13,3171.04,3433.19,349.66,346.47,9.82,0000 0000 0000 0000 000000
2015-05-17 10:10:39,0.00,0.52,0.00,23.75,27.25,29.86,4.76,24.18,1016.39,2035.00,3256.94,3171.00,3433.01,350.31,347.16,9.84,0000 0000 0000 0000 000000
2015-05-17 10:15:41,0.04,0.52,0.00,23.74,27.25,29.89,4.75,24.23,1016.27,2035.00,3256.14,3170.87,3432.75,349.98,346.60,9.87,0000 0000 0000 0000 000000
2015-05-17 10:20:42,0.04,0.52,0.00,23.71,27.25,29.91,4.81,24.23,1016.36,2035.00,3255.95,3170.20,3432.09,350.39,347.15,9.90,0000 0000 0000 0000 000000
2015-05-17 10:25:43,0.03,0.52,0.00,23.72,27.25,29.90,4.72,24.16,1016.41,2035.00,3255.18,3170.01,3431.98,349.73,346.54,9.93,0000 0000 0000 0000 000000
2015-05-17 10:30:44,0.01,0.52,0.00,23.72,27.25,29.87,4.76,24.18,1016.52,2035.00,3255.00,3169.99,3431.83,350.08,346.94,9.96,0000 0000 0000 0000 000000
2015-05-17 10:35:45,0.04,0.53,0.00,23.70,27.25,29.95,4.74,24.30,1016.39,2035.00,3254.46,3169.87,3431.20,350.23,346.99,9.99,0000 0000 0000 0000 000000
2015-05-17 10:40:47,0.03,0.53,0.00,23.67,27.25,29.95,4.73,24.14,1016.34,2035.00,3254.01,3169.28,3431.00,349.88,346.78,10.02,0000 0000 0000 0000 000000
2015-05-17 10:45:48,0.02,0.53,0.00,23.68,27.25,29.93,4.77,24.15,1016.34,2035.00,3253.74,3169.05,3430.93,349.71,346.44,10.05,0000 0000 0000 0000 000000
2015-05-17 10:50:49,0.03,0.53,0.00,23.68,27.25,29.93,4.70,24.18,1016.27,2035.00,3253.05,3169.00,3430.34,349.70,346.25,10.08,0000 0000 0000 0000 000000
2015-05-17 10:55:51,0.01,0.53,0.00,23.67,27.25,29.93,4.75,24.27,1016.42,2035.00,3252.82,3168.90,3430.01,349.80,346.56,10.11,0000 0000 0000 0000 000000
2015-05-17 11:00:52,0.05,0.53,0.00,23.67,27.25,29.94,4.71,24.23,1016.31,2035.00,3252.06,3168.25,3429.97,349.82,346.55,10.14,0000 0000 0000 0000 000000
2015-05-17 11:05:53,0.02,0.53,0.00,23.67,27.25,29.95,4.76,24.23,1016.34,2035.00,3251.97,3168.03,3429.42,349.74,346.46,10.17,0000 0000 0000 0000 000000
2015-05-17 11:10:55,0.02,0.53,0.00,23.65,27.25,29.95,4.75,24.19,1016.21,2035.00,3251.36,3168.00,3429.02,349.89,346.38,10.20,0000 0000 0000 0000 000000
2015-05-17 11:15:56,0.00,0.53,0.00,23.65,27.25,29.97,4.74,24.29,1016.18,2035.01,3251.00,3167.98,3428.97,349.98,346.73,10.23,0000 0000 0000 0000 000000
2015-05-17 11:20:57,0.05,0.53,0.00,23.66,27.25,29.97,4.70,24.24,1016.31,2035.00,3250.68,3167.68,3428.71,349.54,346.38,10.25,0000 0000 0000 0000 000000
2015-05-17 11:25:59,0.04,0.54,0.00,23.66,27.25,29.93,4.77,24.26,1016.35,2035.00,3250.03,3167.05,3428.05,349.67,346.38,10.28,0000 0000 0000 0000 000000
2015-05-17 11:31:00,0.01,0.54,0.00,23.63,27.25,29.97,4.80,24.18,1016.39,2035.00,3249.77,3167.00,3427.99,350.01,346.96,10.31,0000 0000 0000 0000 000000
2015-05-17 11:36:01,0.03,0.54,0.00,23.63,27.25,29.97,4.75,24.31,1016.26,2035.00,3249.05,3166.92,3427.62,349.54,346.27,10.34,0000 0000 0000 0000 000000
2015-05-17 11:41:02,0.03,0.54,0.00,23.62,27.25,29.99,4.71,24.22,1016.18,2035.00,3248.99,3166.46,3427.05,349.42,346.31,10.37,0000 0000 0000 0000 000000
2015-05-17 11:46:04,0.03,0.54,0.00,23.62,27.25,30.00,4.75,24.11,1016.16,2035.00,3248.41,3166.08,3426.99,350.21,347.07,10.40,0000 0000 0000 0000 000000
2015-05-17 11:51:05,0.00,0.54,0.00,23.60,27.25,30.02,4.65,24.24,1016.16,2035.00,3248.01,3166.00,3426.92,349.26,345.97,10.43,0000 0000 0000 0000 000000
2015-05-17 11:56:06,0.03,0.54,0.00,23.61,27.25,30.01,4.70,24.35,1016.15,2035.01,3247.78,3165.99,3426.32,349.51,346.32,10.46,0000 0000 0000 0000 000000
2015-05-17 12:01:07,0.03,0.54,0.00,23.60,27.25,30.02,4.81,24.34,1016.13,2035.00,3247.05,3165.87,3426.01,350.34,347.16,10.49,0000 0000 0000 0000 000000
2015-05-17 12:06:08,0.04,0.54,0.00,23.59,27.25,29.99,4.79,24.17,1016.14,2035.00,3246.93,3165.24,3425.97,350.22,346.81,10.52,0000 0000 0000 0000 000000
2015-05-17 12:11:10,0.04,0.54,0.00,23.58,27.25,29.99,4.77,24.14,1016.13,2035.02,3246.22,3165.01,3425.50,349.92,346.80,10.55,0000 0000 0000 0000 000000
2015-05-17 12:16:11,0.01,0.54,0.00,23.57,27.25,30.03,4.67,24.13,1016.13,2035.01,3246.00,3165.00,3425.03,349.81,346.65,10.58,0000 0000 0000 0000 000000
2015-05-17 12:21:13,0.02,0.54,0.00,23.55,27.25,30.02,4.71,24.13,1016.13,2035.01,3245.58,3164.95,3425.00,349.40,346.43,10.61,0000 0000 0000 0000 000000
2015-05-17 12:26:14,0.05,0.55,0.00,23.54,27.25,30.04,4.78,24.23,1016.13,2035.00,3245.03,3164.26,3424.76,349.48,346.51,10.64,0000 0000 0000 0000 000000
2015-05-17 12:31:15,0.02,0.55,0.00,23.55,27.25,30.03,4.71,24.18,1016.13,2035.00,3244.92,3164.01,3424.10,349.84,346.80,10.66,0000 0000 0000 0000 000000
2015-05-17 12:36:17,0.02,0.55,0.00,23.54,27.25,30.02,4.77,24.13,1016.12,2035.02,3244.14,3164.00,3424.00,350.17,347.08,10.69,0000 0000 0000 0000 000000
2015-05-17 12:41:18,0.00,0.55,0.00,23.52,27.25,30.03,4.71,24.23,1016.13,2035.00,3243.98,3163.97,3423.93,350.09,347.02,10.72,0000 0000 0000 0000 000000
2015-05-17 12:46:19,0.07,0.55,0.00,23.50,27.24,30.04,4.75,24.25,1016.13,2035.00,3243.35,3163.48,3423.25,350.05,346.81,10.75,0000 0000 0000 0000 000000
2015-05-17 12:51:21,0.01,0.55,0.00,23.49,27.24,30.05,4.69,24.24,1016.11,2035.01,3243.00,3163.05,3423.01,349.15,346.10,10.78,0000 0000 0000 0000 000000
2015-05-17 12:56:22,0.02,0.55,0.00,23.47,27.23,30.07,4.76,24.30,1016.11,2035.01,3242.69,3163.00,3422.93,349.92,346.89,10.81,0000 0000 0000 0000 000000
2015-05-17 13:01:23,0.03,0.55,0.00,23.46,27.22,30.05,4.80,24.32,1016.11,2035.01,3242.03,3162.99,3422.41,350.42,347.56,10.84,0000 0000 0000 0000 000000
2015-05-17 13:06:24,0.01,0.55,0.00,23.47,27.22,30.02,4.74,24.26,1016.12,2035.00,3241.97,3162.81,3422.02,349.58,346.61,10.87,0000 0000 0000 0000 000000